Regional Weather Roundup
Issued by NWS

Home | Current Version | Previous Version | Text Only | Print | Product List | Glossary Off
Versions: 1 2 3 4 5 6 7 8 9 10 11 12 13 14 15 16 17 18 19 20 21 22 23 24 25 26 27 28 29 30 31 32 33 34 35 36 37 38 39 40 41 42 43 44 45 46 47 48 49 50

000
ASUS43 KLOT 231103
RWRIL

ILLINOIS REGIONAL WEATHER ROUNDUP
NATIONAL WEATHER SERVICE CHICAGO/ROMEOVILLE IL
600 AM CDT WED MAY 23 2018

NOTE: "FAIR" INDICATES FEW OR NO CLOUDS BELOW 12,000 FEET WITH NO
SIGNIFICANT WEATHER AND/OR OBSTRUCTIONS TO VISIBILITY.

* THESE STATIONS ARE NOT UNDER NWS QUALITY CONTROL. THEY ALSO MAY NOT
  REPORT WEATHER SUCH AS PRECIPITATION OR FOG.

ILZ001-002-007-009-015-016-024-231200-
NORTHWEST ILLINOIS

CITY           SKY/WX    TMP DP  RH WIND       PRES   REMARKS
MOLINE         FAIR      59  58  96 E3        30.14R
STERLING*      FOG       56  56 100 E3        30.16  VSB 1
SAVANNA*         N/A     54  53  99 CALM      30.15S FOG
$$

ILZ003-004-008-010-011-017-018-231200-
NORTH CENTRAL ILLINOIS

CITY           SKY/WX    TMP DP  RH WIND       PRES   REMARKS
ROCKFORD       MOCLDY    52  51  97 CALM      30.18R FOG
FREEPORT*      FOG       51  51 100 CALM      30.18R VSB<1/4
ROCHELLE*      FOG       51  51 100 CALM      30.17R VSB 3/4
DE KALB*       FOG       52  52 100 CALM      30.17R VSB<1/4
PERU*            N/A     57  56  95 CALM      30.17R FOG
$$

ILZ005-006-012>014-019>023-231200-
NORTHEAST ILLINOIS

CITY           SKY/WX    TMP DP  RH WIND       PRES   REMARKS
CHICAGO-OHARE  MOCLDY    53  50  89 CALM      30.16R FOG
CHICAGO-MIDWAY MOCLDY    52  50  93 CALM      30.16R FOG
AURORA         FOG       50  50 100 CALM      30.16R VSB 1/4
LANSING*       FAIR      48  48 100 CALM      30.17R FOG
JOLIET*        FOG       49  49 100 CALM      30.17R VSB 1/2
WAUKEGAN       FAIR      48  48 100 CALM      30.16R FOG
DUPAGE AIRPORT FOG       51  51 100 CALM      30.16R VSB 3/4
KANKAKEE*      FOG       50  50  99 CALM      30.17R VSB 1/2
WHEELING       FAIR      53  51  93 CALM      30.18R
MORRIS*        FOG       52  51  98 CALM      30.16R VSB<1/4
NORTHERLY ISL    N/A     52  50  93 CALM        N/A
$$

LMZ740>746-231200-
SOUTHERN LAKE MICHIGAN

STATION/POSITION SKY/WX   TEMP    WIND        PRES    VSBY  WAVE
                          AIR SEA DIR/SP/G                  HT/PER
                          (F)     (DEG/KT/KT) (MB)    (MI)  (FT/S)
SOUTHERN BUOY              42 39  170/  4/  4 1021.8R         0
WILMETTE HARBOR            50 48  190/  4/  6   N/A           0
HARRISON CRIB              54     200/  3/  4   N/A
BURNHAM HARBOR             53     280/  1/  3   N/A
CALUMET HARBOR             51      CALM  /  2 1020.6
BURNS HARBOR               51        CALM     1021.7R
MICHIGAN CITY              49        CALM       N/A
MICHIGAN CITY 6N           49 54   CALM  /  2   N/A           0
ST. JOSEPH                 48 53     CALM     1022.0R         0
$$

ILZ025>027-034>036-040-047-049-050-058-095>099-231200-
WEST-CENTRAL ILLINOIS

CITY           SKY/WX    TMP DP  RH WIND       PRES   REMARKS
QUINCY         PTCLDY    64  59  83 E7        30.11R
GALESBURG*     FAIR      61  60  96 E5        30.15R FOG
MACOMB*        CLEAR     59  58  97 CALM      30.16R FOG
JACKSONVILLE*  CLEAR     60  58  93 E7        30.13R
PITTSFIELD*    CLEAR     62  60  94 E3        30.13R
$$

ILZ028>032-037-038-041>044-048-051>054-059>061-231200-
CENTRAL ILLINOIS

CITY           SKY/WX    TMP DP  RH WIND       PRES   REMARKS
PONTIAC        FAIR      55  54  97 E3        30.17R FOG
BLOOMINGTON    FAIR      54  52  93 E5        30.16R
DECATUR        FAIR      54  53  97 NE6       30.14R FOG
PEORIA         FAIR      60  56  86 E5        30.15R
LACON*           N/A     55  55 100 CALM      30.15R FOG
LINCOLN*       FAIR      58  57  99 CALM      30.15R FOG
SPRINGFIELD    FAIR      61  59  93 E5        30.14R
TAYLORVILLE    FAIR      61  59  91 E5        30.14R
$$

ILZ033-039-045-046-055>057-062-063-231200-
EAST-CENTRAL ILLINOIS

CITY           SKY/WX    TMP DP  RH WIND       PRES   REMARKS
CHAMPAIGN      FAIR      57  55  93 NE9       30.14R FOG
DANVILLE*      FAIR      53  53 100 N5        30.13R FOG
RANTOUL*       FAIR      58  56  95 NE5       30.15R FOG
MATTOON        FAIR      57  56  96 CALM      30.13R FOG
PARIS*         FAIR      57  56  97 N6        30.15R FOG
$$

ILZ079-100>102-231200-
SOUTHWEST ILLINOIS

CITY           SKY/WX    TMP DP  RH WIND       PRES   REMARKS
BELLEVILLE     CLEAR     64  60  85 NE3       30.10R
CAHOKIA*       CLEAR     65  59  81 CALM      30.11R
SPARTA*        CLEAR     64  63  96 NE5       30.12R
$$

ILZ064>066-069>071-074>076-080>082-084>086-088>090-092>094-231200-
SOUTH-CENTRAL ILLINOIS

CITY           SKY/WX    TMP DP  RH WIND       PRES   REMARKS
CARBONDALE     FAIR      63  62  97 S5        30.10R FOG
CAIRO*         FAIR      69  65  87 N5        30.08R
EFFINGHAM*     FAIR      59  58  98 CALM      30.14R FOG
MT. VERNON       N/A     63  60  90 N5        30.12R
CENTRALIA*     CLEAR     65  61  88 NE5       30.11R
SALEM*         FAIR      66  60  81 NE6       30.12R
METROPOLIS*    FAIR      67  65  93 N6        30.08R FOG
$$

ILZ067-068-072-073-078-083-087-091-231200-
SOUTHEAST ILLINOIS

CITY           SKY/WX    TMP DP  RH WIND       PRES   REMARKS
LAWRENCEVILLE  FAIR      65  60  84 N5        30.11R
FLORA*         FAIR      64  61  90 N3        30.12R
FAIRFIELD*     FAIR      64  61  90 N3        30.10R
HARRISBURG*    FAIR      66  62  86 CALM      30.09R
ROBINSON*      FAIR      60  59  97 N3        30.13R
CARMI*         FAIR      65  61  88 N5        30.09R
$$

ABBREVIATIONS USED IN REMARKS
   TC - TEMPERATURE IN CELSIUS
  WCI - WIND CHILL INDEX
   HX - HEAT INDEX
  VSB - VISIBILITY
$$





USA.gov is the U.S. government's official web portal to all federal, state and local government web resources and services.